Year,Month,Day,Hour,Minute,Value (Times are PST for temperature in C)
2012,02,14,00,00,5.50
2012,02,14,00,01,5.50
2012,02,14,00,02,5.50
2012,02,14,00,03,5.50
2012,02,14,00,04,5.50
2012,02,14,00,05,5.50
2012,02,14,00,06,5.50
2012,02,14,00,07,5.40
2012,02,14,00,08,5.40
2012,02,14,00,09,5.40
2012,02,14,00,10,5.40
2012,02,14,00,11,5.40
2012,02,14,00,12,5.40
2012,02,14,00,13,5.40
2012,02,14,00,14,5.40
2012,02,14,00,15,5.40
2012,02,14,00,16,5.40
2012,02,14,00,17,5.40
2012,02,14,00,18,5.40
2012,02,14,00,19,5.40
2012,02,14,00,20,5.40
2012,02,14,00,21,5.40
2012,02,14,00,22,5.40
2012,02,14,00,23,5.40
2012,02,14,00,24,5.30
2012,02,14,00,25,5.30
2012,02,14,00,26,5.30
2012,02,14,00,27,5.30
2012,02,14,00,28,5.30
2012,02,14,00,29,5.30
2012,02,14,00,30,5.30
2012,02,14,00,31,5.30
2012,02,14,00,32,5.20
2012,02,14,00,33,5.20
2012,02,14,00,34,5.20
2012,02,14,00,35,5.20
2012,02,14,00,36,5.20
2012,02,14,00,37,5.20
2012,02,14,00,38,5.20
2012,02,14,00,39,5.20
2012,02,14,00,40,5.20
2012,02,14,00,41,5.20
2012,02,14,00,42,5.20
2012,02,14,00,43,5.20
2012,02,14,00,44,5.20
2012,02,14,00,45,5.20
2012,02,14,00,46,5.20
2012,02,14,00,47,5.20
2012,02,14,00,48,5.20
2012,02,14,00,49,5.20
2012,02,14,00,50,5.20
2012,02,14,00,51,5.20
2012,02,14,00,52,5.20
2012,02,14,00,53,5.20
2012,02,14,00,54,5.20
2012,02,14,00,55,5.20
2012,02,14,00,56,5.10
2012,02,14,00,57,5.20
2012,02,14,00,58,5.10
2012,02,14,00,59,5.20
2012,02,14,01,00,5.20
2012,02,14,01,01,5.20
2012,02,14,01,02,5.20
2012,02,14,01,03,5.20
2012,02,14,01,04,5.20
2012,02,14,01,05,5.20
2012,02,14,01,06,5.20
2012,02,14,01,07,5.20
2012,02,14,01,08,5.20
2012,02,14,01,09,5.20
2012,02,14,01,10,5.20
2012,02,14,01,11,5.20
2012,02,14,01,12,5.20
2012,02,14,01,13,5.20
2012,02,14,01,14,5.20
2012,02,14,01,15,5.20
2012,02,14,01,16,5.20
2012,02,14,01,17,5.20
2012,02,14,01,18,5.20
2012,02,14,01,19,5.20
2012,02,14,01,20,5.20
2012,02,14,01,21,5.20
2012,02,14,01,22,5.20
2012,02,14,01,23,5.20
2012,02,14,01,24,5.20
2012,02,14,01,25,5.20
2012,02,14,01,26,5.30
2012,02,14,01,27,5.30
2012,02,14,01,28,5.30
2012,02,14,01,29,5.30
2012,02,14,01,30,5.30
2012,02,14,01,31,5.30
2012,02,14,01,32,5.30
2012,02,14,01,33,5.30
2012,02,14,01,34,5.30
2012,02,14,01,35,5.30
2012,02,14,01,36,5.30
2012,02,14,01,37,5.30
2012,02,14,01,38,5.30
2012,02,14,01,39,5.30
2012,02,14,01,40,5.30
2012,02,14,01,41,5.30
2012,02,14,01,42,5.30
2012,02,14,01,43,5.30
2012,02,14,01,44,5.30
2012,02,14,01,45,5.30
2012,02,14,01,46,5.30
2012,02,14,01,47,5.30
2012,02,14,01,48,5.30
2012,02,14,01,49,5.30
2012,02,14,01,50,5.30
2012,02,14,01,51,5.30
2012,02,14,01,52,5.30
2012,02,14,01,53,5.30
2012,02,14,01,54,5.30
2012,02,14,01,55,5.30
2012,02,14,01,56,5.30
2012,02,14,01,57,5.30
2012,02,14,01,58,5.30
2012,02,14,01,59,5.20
2012,02,14,02,00,5.20
2012,02,14,02,01,5.20
2012,02,14,02,02,5.20
2012,02,14,02,03,5.20
2012,02,14,02,04,5.20
2012,02,14,02,05,5.20
2012,02,14,02,06,5.20
2012,02,14,02,07,5.10
2012,02,14,02,08,5.10
2012,02,14,02,09,5.10
2012,02,14,02,10,5.10
2012,02,14,02,11,5.10
2012,02,14,02,12,5.10
2012,02,14,02,13,5.10
2012,02,14,02,14,5.10
2012,02,14,02,15,5.10
2012,02,14,02,16,5.10
2012,02,14,02,17,5.00
2012,02,14,02,18,5.10
2012,02,14,02,19,5.10
2012,02,14,02,20,5.10
2012,02,14,02,21,5.10
2012,02,14,02,22,5.10
2012,02,14,02,23,5.10
2012,02,14,02,24,5.10
2012,02,14,02,25,5.10
2012,02,14,02,26,5.10
2012,02,14,02,27,5.10
2012,02,14,02,28,5.10
2012,02,14,02,29,5.10
2012,02,14,02,30,5.10
2012,02,14,02,31,5.10
2012,02,14,02,32,5.10
2012,02,14,02,33,5.10
2012,02,14,02,34,5.10
2012,02,14,02,35,5.10
2012,02,14,02,36,5.10
2012,02,14,02,37,5.10
2012,02,14,02,38,5.10
2012,02,14,02,39,5.10
2012,02,14,02,40,5.10
2012,02,14,02,41,5.00
2012,02,14,02,42,5.00
2012,02,14,02,43,5.00
2012,02,14,02,44,5.00
2012,02,14,02,45,4.90
2012,02,14,02,46,4.90
2012,02,14,02,47,4.90
2012,02,14,02,48,4.90
2012,02,14,02,49,4.80
2012,02,14,02,50,4.80
2012,02,14,02,51,4.80
2012,02,14,02,52,4.80
2012,02,14,02,53,4.80
2012,02,14,02,54,4.80
2012,02,14,02,55,4.80
2012,02,14,02,56,4.80
2012,02,14,02,57,4.80
2012,02,14,02,58,4.80
2012,02,14,02,59,4.80
2012,02,14,03,00,4.80
2012,02,14,03,01,4.80
2012,02,14,03,02,4.80
2012,02,14,03,06,4.80
2012,02,14,03,07,4.80
2012,02,14,03,08,4.80
2012,02,14,03,09,4.80
2012,02,14,03,10,4.80
2012,02,14,03,11,4.90
2012,02,14,03,12,4.90
2012,02,14,03,13,4.90
2012,02,14,03,14,4.90
2012,02,14,03,15,4.90
2012,02,14,03,16,4.90
2012,02,14,03,17,4.90
2012,02,14,03,18,5.00
2012,02,14,03,19,5.00
2012,02,14,03,20,5.00
2012,02,14,03,21,5.10
2012,02,14,03,22,5.10
2012,02,14,03,23,5.10
2012,02,14,03,24,5.10
2012,02,14,03,25,5.10
2012,02,14,03,26,5.10
2012,02,14,03,27,5.10
2012,02,14,03,28,5.20
2012,02,14,03,29,5.10
2012,02,14,03,30,5.10
2012,02,14,03,31,5.10
2012,02,14,03,32,5.10
2012,02,14,03,33,5.10
2012,02,14,03,34,5.10
2012,02,14,03,35,5.10
2012,02,14,03,36,5.10
2012,02,14,03,37,5.10
2012,02,14,03,38,5.10
2012,02,14,03,39,5.10
2012,02,14,03,40,5.10
2012,02,14,03,41,5.10
2012,02,14,03,42,5.10
2012,02,14,03,43,5.10
2012,02,14,03,44,5.10
2012,02,14,03,45,5.10
2012,02,14,03,46,5.10
2012,02,14,03,47,5.10
2012,02,14,03,48,5.10
2012,02,14,03,49,5.20
2012,02,14,03,50,5.20
2012,02,14,03,51,5.20
2012,02,14,03,52,5.20
2012,02,14,03,53,5.20
2012,02,14,03,54,5.20
2012,02,14,03,55,5.20
2012,02,14,03,56,5.30
2012,02,14,03,57,5.30
2012,02,14,03,58,5.30
2012,02,14,03,59,5.30
2012,02,14,04,00,5.30
2012,02,14,04,01,5.30
2012,02,14,04,02,5.30
2012,02,14,04,03,5.30
2012,02,14,04,04,5.40
2012,02,14,04,05,5.40
2012,02,14,04,06,5.40
2012,02,14,04,07,5.40
2012,02,14,04,08,5.40
2012,02,14,04,09,5.40
2012,02,14,04,10,5.40
2012,02,14,04,11,5.40
2012,02,14,04,12,5.40
2012,02,14,04,13,5.40
2012,02,14,04,14,5.30
2012,02,14,04,15,5.30
2012,02,14,04,16,5.30
2012,02,14,04,17,5.30
2012,02,14,04,18,5.30
2012,02,14,04,19,5.30
2012,02,14,04,20,5.30
2012,02,14,04,21,5.30
2012,02,14,04,22,5.30
2012,02,14,04,23,5.30
2012,02,14,04,24,5.30
2012,02,14,04,25,5.30
2012,02,14,04,26,5.30
2012,02,14,04,27,5.30
2012,02,14,04,28,5.30
2012,02,14,04,29,5.30
2012,02,14,04,30,5.30
2012,02,14,04,31,5.30
2012,02,14,04,32,5.30
2012,02,14,04,33,5.30
2012,02,14,04,34,5.30
2012,02,14,04,35,5.30
2012,02,14,04,36,5.30
2012,02,14,04,37,5.30
2012,02,14,04,38,5.20
2012,02,14,04,39,5.20
2012,02,14,04,40,5.20
2012,02,14,04,41,5.20
2012,02,14,04,42,5.20
2012,02,14,04,43,5.20
2012,02,14,04,44,5.20
2012,02,14,04,45,5.10
2012,02,14,04,46,5.10
2012,02,14,04,47,5.10
2012,02,14,04,48,5.10
2012,02,14,04,49,5.10
2012,02,14,04,50,5.10
2012,02,14,04,51,5.10
2012,02,14,04,52,5.10
2012,02,14,04,53,5.10
2012,02,14,04,54,5.10
2012,02,14,04,55,5.10
2012,02,14,04,56,5.10
2012,02,14,04,57,5.10
2012,02,14,04,58,5.10
2012,02,14,04,59,5.10
2012,02,14,05,00,5.10
2012,02,14,05,01,5.10
2012,02,14,05,02,5.10
2012,02,14,05,03,5.10
2012,02,14,05,04,5.10
2012,02,14,05,05,5.10
2012,02,14,05,06,5.10
2012,02,14,05,07,5.10
2012,02,14,05,08,5.10
2012,02,14,05,09,5.10
2012,02,14,05,10,5.20
2012,02,14,05,11,5.20
2012,02,14,05,12,5.20
2012,02,14,05,13,5.20
2012,02,14,05,14,5.20
2012,02,14,05,15,5.20
2012,02,14,05,16,5.20
2012,02,14,05,17,5.20
2012,02,14,05,18,5.20
2012,02,14,05,19,5.20
2012,02,14,05,20,5.20
2012,02,14,05,21,5.20
2012,02,14,05,22,5.20
2012,02,14,05,23,5.20
2012,02,14,05,24,5.20
2012,02,14,05,25,5.20
2012,02,14,05,26,5.20
2012,02,14,05,27,5.20
2012,02,14,05,28,5.20
2012,02,14,05,29,5.20
2012,02,14,05,30,5.20
2012,02,14,05,31,5.20
2012,02,14,05,32,5.20
2012,02,14,05,33,5.20
2012,02,14,05,34,5.20
2012,02,14,05,35,5.20
2012,02,14,05,36,5.20
2012,02,14,05,37,5.20
2012,02,14,05,38,5.20
2012,02,14,05,39,5.20
2012,02,14,05,40,5.20
2012,02,14,05,41,5.20
2012,02,14,05,42,5.20
2012,02,14,05,43,5.20
2012,02,14,05,44,5.20
2012,02,14,05,45,5.20
2012,02,14,05,46,5.20
2012,02,14,05,47,5.20
2012,02,14,05,48,5.20
2012,02,14,05,49,5.20
2012,02,14,05,50,5.20
2012,02,14,05,51,5.20
2012,02,14,05,52,5.20
2012,02,14,05,53,5.20
2012,02,14,05,54,5.20
2012,02,14,05,55,5.20
2012,02,14,05,56,5.20
2012,02,14,05,57,5.20
2012,02,14,05,58,5.20
2012,02,14,05,59,5.20
2012,02,14,06,00,5.20
2012,02,14,06,01,5.20
2012,02,14,06,02,5.20
2012,02,14,06,03,5.20
2012,02,14,06,04,5.20
2012,02,14,06,05,5.20
2012,02,14,06,06,5.20
2012,02,14,06,07,5.20
2012,02,14,06,08,5.20
2012,02,14,06,09,5.30
2012,02,14,06,10,5.30
2012,02,14,06,11,5.30
2012,02,14,06,12,5.30
2012,02,14,06,13,5.30
2012,02,14,06,14,5.30
2012,02,14,06,15,5.30
2012,02,14,06,16,5.30
2012,02,14,06,17,5.30
2012,02,14,06,18,5.30
2012,02,14,06,19,5.30
2012,02,14,06,20,5.30
2012,02,14,06,21,5.20
2012,02,14,06,22,5.20
2012,02,14,06,23,5.20
2012,02,14,06,24,5.20
2012,02,14,06,25,5.20
2012,02,14,06,26,5.20
2012,02,14,06,27,5.20
2012,02,14,06,28,5.20
2012,02,14,06,29,5.20
2012,02,14,06,30,5.20
2012,02,14,06,31,5.20
2012,02,14,06,32,5.20
2012,02,14,06,33,5.20
2012,02,14,06,34,5.20
2012,02,14,06,35,5.20
2012,02,14,06,36,5.20
2012,02,14,06,37,5.20
2012,02,14,06,38,5.20
2012,02,14,06,39,5.20
2012,02,14,06,40,5.20
2012,02,14,06,41,5.20
2012,02,14,06,42,5.20
2012,02,14,06,43,5.20
2012,02,14,06,44,5.20
2012,02,14,06,45,5.20
2012,02,14,06,46,5.10
2012,02,14,06,47,5.20
2012,02,14,06,48,5.20
2012,02,14,06,49,5.10
2012,02,14,06,50,5.10
2012,02,14,06,51,5.10
2012,02,14,06,52,5.10
2012,02,14,06,53,5.10
2012,02,14,06,54,5.10
2012,02,14,06,55,5.10
2012,02,14,06,56,5.10
2012,02,14,06,57,5.00
2012,02,14,06,58,5.00
2012,02,14,06,59,5.00
2012,02,14,07,00,4.90
2012,02,14,07,01,4.90
2012,02,14,07,02,4.90
2012,02,14,07,03,4.90
2012,02,14,07,04,4.90
2012,02,14,07,05,4.90
2012,02,14,07,06,4.90
2012,02,14,07,07,4.80
2012,02,14,07,08,4.80
2012,02,14,07,09,4.80
2012,02,14,07,10,4.80
2012,02,14,07,11,4.80
2012,02,14,07,12,4.80
2012,02,14,07,13,4.70
2012,02,14,07,14,4.70
2012,02,14,07,15,4.70
2012,02,14,07,16,4.70
2012,02,14,07,17,4.70
2012,02,14,07,18,4.70
2012,02,14,07,19,4.70
2012,02,14,07,20,4.70
2012,02,14,07,21,4.70
2012,02,14,07,22,4.70
2012,02,14,07,23,4.70
2012,02,14,07,24,4.70
2012,02,14,07,25,4.70
2012,02,14,07,26,4.70
2012,02,14,07,27,4.70
2012,02,14,07,28,4.70
2012,02,14,07,29,4.70
2012,02,14,07,30,4.70
2012,02,14,07,31,4.60
2012,02,14,07,32,4.60
2012,02,14,07,33,4.60
2012,02,14,07,34,4.60
2012,02,14,07,35,4.60
2012,02,14,07,36,4.60
2012,02,14,07,37,4.60
2012,02,14,07,38,4.60
2012,02,14,07,39,4.60
2012,02,14,07,40,4.60
2012,02,14,07,41,4.60
2012,02,14,07,42,4.50
2012,02,14,07,43,4.50
2012,02,14,07,44,4.50
2012,02,14,07,45,4.50
2012,02,14,07,46,4.50
2012,02,14,07,47,4.60
2012,02,14,07,48,4.60
2012,02,14,07,49,4.60
2012,02,14,07,50,4.60
2012,02,14,07,51,4.60
2012,02,14,07,52,4.60
2012,02,14,07,53,4.60
2012,02,14,07,54,4.60
2012,02,14,07,55,4.60
2012,02,14,07,56,4.60
2012,02,14,07,57,4.60
2012,02,14,07,58,4.60
2012,02,14,07,59,4.60
2012,02,14,08,00,4.60
2012,02,14,08,01,4.60
2012,02,14,08,02,4.60
2012,02,14,08,03,4.60
2012,02,14,08,04,4.60
2012,02,14,08,05,4.60
2012,02,14,08,06,4.60
2012,02,14,08,07,4.60
2012,02,14,08,08,4.60
2012,02,14,08,09,4.60
2012,02,14,08,10,4.70
2012,02,14,08,11,4.70
2012,02,14,08,12,4.70
2012,02,14,08,13,4.70
2012,02,14,08,14,4.70
2012,02,14,08,15,4.70
2012,02,14,08,16,4.70
2012,02,14,08,17,4.70
2012,02,14,08,18,4.80
2012,02,14,08,19,4.80
2012,02,14,08,20,4.80
2012,02,14,08,21,4.80
2012,02,14,08,22,4.80
2012,02,14,08,23,4.80
2012,02,14,08,24,4.80
2012,02,14,08,25,4.80
2012,02,14,08,26,4.80
2012,02,14,08,27,4.80
2012,02,14,08,28,4.80
2012,02,14,08,29,4.80
2012,02,14,08,30,4.80
2012,02,14,08,31,4.90
2012,02,14,08,32,4.90
2012,02,14,08,33,4.90
2012,02,14,08,34,4.90
2012,02,14,08,35,4.90
2012,02,14,08,36,4.90
2012,02,14,08,37,4.90
2012,02,14,08,38,4.90
2012,02,14,08,39,4.90
2012,02,14,08,40,4.90
2012,02,14,08,41,5.00
2012,02,14,08,42,5.00
2012,02,14,08,43,5.00
2012,02,14,08,44,5.00
2012,02,14,08,45,5.00
2012,02,14,08,46,5.00
2012,02,14,08,47,5.00
2012,02,14,08,48,5.10
2012,02,14,08,49,5.10
2012,02,14,08,50,5.10
2012,02,14,08,51,5.10
2012,02,14,08,52,5.10
2012,02,14,08,53,5.10
2012,02,14,08,54,5.10
2012,02,14,08,55,5.10
2012,02,14,08,56,5.10
2012,02,14,08,57,5.10
2012,02,14,08,58,5.10
2012,02,14,08,59,5.10
2012,02,14,09,00,5.10
2012,02,14,09,01,5.20
2012,02,14,09,02,5.20
2012,02,14,09,03,5.20
2012,02,14,09,04,5.20
2012,02,14,09,05,5.20
2012,02,14,09,06,5.30
2012,02,14,09,07,5.30
2012,02,14,09,08,5.30
2012,02,14,09,09,5.30
2012,02,14,09,10,5.30
2012,02,14,09,11,5.30
2012,02,14,09,12,5.30
2012,02,14,09,13,5.30
2012,02,14,09,14,5.40
2012,02,14,09,15,5.40
2012,02,14,09,16,5.40
2012,02,14,09,17,5.40
2012,02,14,09,18,5.40
2012,02,14,09,19,5.40
2012,02,14,09,20,5.40
2012,02,14,09,21,5.50
2012,02,14,09,22,5.50
2012,02,14,09,23,5.60
2012,02,14,09,24,5.60
2012,02,14,09,25,5.70
2012,02,14,09,26,5.70
2012,02,14,09,27,5.70
2012,02,14,09,28,5.70
2012,02,14,09,29,5.80
2012,02,14,09,30,5.80
2012,02,14,09,31,5.80
2012,02,14,09,32,5.80
2012,02,14,09,33,5.90
2012,02,14,09,34,5.90
2012,02,14,09,35,6.00
2012,02,14,09,36,6.00
2012,02,14,09,37,6.10
2012,02,14,09,38,6.10
2012,02,14,09,39,6.20
2012,02,14,09,40,6.20
2012,02,14,09,41,6.30
2012,02,14,09,42,6.30
2012,02,14,09,43,6.30
2012,02,14,09,44,6.30
2012,02,14,09,45,6.30
2012,02,14,09,46,6.30
2012,02,14,09,47,6.30
2012,02,14,09,48,6.30
2012,02,14,09,49,6.30
2012,02,14,09,50,6.40
2012,02,14,09,51,6.30
2012,02,14,09,52,6.40
2012,02,14,09,53,6.30
2012,02,14,09,54,6.30
2012,02,14,09,55,6.30
2012,02,14,09,56,6.30
2012,02,14,09,57,6.40
2012,02,14,09,58,6.30
2012,02,14,09,59,6.30
2012,02,14,10,00,6.30
2012,02,14,10,01,6.40
2012,02,14,10,02,6.40
2012,02,14,10,03,6.40
2012,02,14,10,04,6.40
2012,02,14,10,05,6.40
2012,02,14,10,06,6.40
2012,02,14,10,07,6.40
2012,02,14,10,08,6.40
2012,02,14,10,09,6.40
2012,02,14,10,10,6.50
2012,02,14,10,11,6.50
2012,02,14,10,12,6.50
2012,02,14,10,13,6.60
2012,02,14,10,14,6.60
2012,02,14,10,15,6.70
2012,02,14,10,16,6.70
2012,02,14,10,17,6.80
2012,02,14,10,18,6.90
2012,02,14,10,19,6.90
2012,02,14,10,20,7.00
2012,02,14,10,21,7.10
2012,02,14,10,22,7.20
2012,02,14,10,23,7.20
2012,02,14,10,24,7.20
2012,02,14,10,25,7.30
2012,02,14,10,26,7.30
2012,02,14,10,27,7.40
2012,02,14,10,28,7.40
2012,02,14,10,29,7.50
2012,02,14,10,30,7.60
2012,02,14,10,31,7.60
2012,02,14,10,32,7.70
2012,02,14,10,33,7.70
2012,02,14,10,34,7.80
2012,02,14,10,35,7.80
2012,02,14,10,36,7.90
2012,02,14,10,37,7.90
2012,02,14,10,38,7.90
2012,02,14,10,39,7.90
2012,02,14,10,40,7.90
2012,02,14,10,41,7.90
2012,02,14,10,42,7.90
2012,02,14,10,43,7.90
2012,02,14,10,44,7.80
2012,02,14,10,45,7.80
2012,02,14,10,46,7.80
2012,02,14,10,47,7.80
2012,02,14,10,48,7.70
2012,02,14,10,49,7.70
2012,02,14,10,50,7.60
2012,02,14,10,51,7.60
2012,02,14,10,52,7.50
2012,02,14,10,53,7.40
2012,02,14,10,54,7.40
2012,02,14,10,55,7.30
2012,02,14,10,56,7.20
2012,02,14,10,57,7.10
2012,02,14,10,58,7.10
2012,02,14,10,59,7.00
2012,02,14,11,00,6.90
2012,02,14,11,01,6.90
2012,02,14,11,02,6.90
2012,02,14,11,03,6.80
2012,02,14,11,04,6.80
2012,02,14,11,05,6.80
2012,02,14,11,06,6.80
2012,02,14,11,07,6.80
2012,02,14,11,08,6.80
2012,02,14,11,09,6.80
2012,02,14,11,10,6.80
2012,02,14,11,11,6.80
2012,02,14,11,12,6.80
2012,02,14,11,13,6.80
2012,02,14,11,14,6.80
2012,02,14,11,15,6.80
2012,02,14,11,16,6.90
2012,02,14,11,17,6.90
2012,02,14,11,18,6.90
2012,02,14,11,19,6.90
2012,02,14,11,20,6.90
2012,02,14,11,21,6.90
2012,02,14,11,22,7.00
2012,02,14,11,23,7.00
2012,02,14,11,24,7.00
2012,02,14,11,25,7.10
2012,02,14,11,26,7.10
2012,02,14,11,27,7.10
2012,02,14,11,28,7.10
2012,02,14,11,29,7.10
2012,02,14,11,30,7.10
2012,02,14,11,31,7.10
2012,02,14,11,32,7.10
2012,02,14,11,33,7.10
2012,02,14,11,34,7.10
2012,02,14,11,35,7.10
2012,02,14,11,36,7.10
2012,02,14,11,37,7.10
2012,02,14,11,38,7.10
2012,02,14,11,39,7.10
2012,02,14,11,40,7.10
2012,02,14,11,41,7.10
2012,02,14,11,42,7.10
2012,02,14,11,43,7.10
2012,02,14,11,44,7.10
2012,02,14,11,45,7.10
2012,02,14,11,46,7.20
2012,02,14,11,47,7.20
2012,02,14,11,48,7.20
2012,02,14,11,49,7.30
2012,02,14,11,50,7.30
2012,02,14,11,51,7.30
2012,02,14,11,52,7.30
2012,02,14,11,53,7.30
2012,02,14,11,54,7.30
2012,02,14,11,55,7.30
2012,02,14,11,56,7.30
2012,02,14,11,57,7.30
2012,02,14,11,58,7.30
2012,02,14,11,59,7.30
2012,02,14,12,00,7.30
2012,02,14,12,01,7.30
2012,02,14,12,02,7.30
2012,02,14,12,03,7.30
2012,02,14,12,04,7.30
2012,02,14,12,05,7.30
2012,02,14,12,06,7.30
2012,02,14,12,07,7.30
2012,02,14,12,08,7.30
2012,02,14,12,09,7.40
2012,02,14,12,10,7.40
2012,02,14,12,11,7.50
2012,02,14,12,12,7.50
2012,02,14,12,13,7.50
2012,02,14,12,14,7.60
2012,02,14,12,15,7.60
2012,02,14,12,16,7.60
2012,02,14,12,17,7.70
2012,02,14,12,18,7.70
2012,02,14,12,19,7.70
2012,02,14,12,20,7.70
2012,02,14,12,21,7.70
2012,02,14,12,22,7.70
2012,02,14,12,23,7.70
2012,02,14,12,24,7.70
2012,02,14,12,25,7.70
2012,02,14,12,26,7.70
2012,02,14,12,27,7.80
2012,02,14,12,28,7.80
2012,02,14,12,29,7.70
2012,02,14,12,30,7.70
2012,02,14,12,31,7.70
2012,02,14,12,32,7.60
2012,02,14,12,33,7.60
2012,02,14,12,34,7.60
2012,02,14,12,35,7.60
2012,02,14,12,36,7.60
2012,02,14,12,37,7.60
2012,02,14,12,38,7.60
2012,02,14,12,39,7.50
2012,02,14,12,40,7.50
2012,02,14,12,41,7.60
2012,02,14,12,42,7.60
2012,02,14,12,43,7.60
2012,02,14,12,44,7.60
2012,02,14,12,45,7.70
2012,02,14,12,46,7.70
2012,02,14,12,47,7.80
2012,02,14,12,48,7.90
2012,02,14,12,49,7.90
2012,02,14,12,50,7.90
2012,02,14,12,51,7.90
2012,02,14,12,52,7.90
2012,02,14,12,53,7.90
2012,02,14,12,54,7.90
2012,02,14,12,55,7.90
2012,02,14,12,56,7.90
2012,02,14,12,57,7.90
2012,02,14,12,58,8.00
2012,02,14,12,59,8.00
2012,02,14,13,00,8.00
2012,02,14,13,01,8.00
2012,02,14,13,02,8.00
2012,02,14,13,03,8.10
2012,02,14,13,04,8.10
2012,02,14,13,05,8.10
2012,02,14,13,06,8.10
2012,02,14,13,07,8.10
2012,02,14,13,08,8.10
2012,02,14,13,09,8.00
2012,02,14,13,10,8.00
2012,02,14,13,11,8.00
2012,02,14,13,12,8.00
2012,02,14,13,13,7.90
2012,02,14,13,14,7.90
2012,02,14,13,15,7.90
2012,02,14,13,16,7.90
2012,02,14,13,17,7.90
2012,02,14,13,18,8.00
2012,02,14,13,19,8.00
2012,02,14,13,20,8.10
2012,02,14,13,21,8.10
2012,02,14,13,22,8.10
2012,02,14,13,23,8.10
2012,02,14,13,24,8.10
2012,02,14,13,25,8.10
2012,02,14,13,26,8.10
2012,02,14,13,27,8.10
2012,02,14,13,28,8.10
2012,02,14,13,29,8.00
2012,02,14,13,30,8.10
2012,02,14,13,31,8.10
2012,02,14,13,32,8.10
